Torna al catalogo

COSMOS 2392 DEB

AttivoLEO
NORAD 43372·DEBRIS·🇷🇺 Russia

Lanciato Jul 25, 2002 da Baikonur Cosmodrome

Loading…

Prossimi Passaggi (prossime 24 ore)

TLE

AggiornatoSource: Space-Track

Epoca: Sep 13, 2026, 11:37 UTC

1 43372U 02037BW  26256.48424313 -.00003838  00000-0 -28403-1 0  9993
2 43372  63.4363  50.5174 0271959 343.6545  15.5780 12.30060855425671

Traccia COSMOS 2392 DEB in tempo reale con AllMySat

Download on the App Store